Temp
63 63 62 63 63 63 63 63 63 63 63 63 63 62 62 62 62 73 84 91 92 79 82 97 96 97 99 95 99 100 81 60 65 67 84 94 94 100 98 76 75 82 86 93 94
62 62 62 62 63 63 62 62 62 63 63 63 62 62 62 62 73 82 89 81 79 80 92 93 91 95 92 94 96 92 70 64 82 86 93 98 96 98 81 70 67 79 86 93 93
62 62 62 62 62 62 62 62 62 62 62 62 62 62 62 65 79 94 80 80 78 83 98 99 99 96 90 96 95 94 71 76 82 98 99 97 97 100 81 76 78 73 81 89 91
61 61 61 61 62 62 62 62 61 61 62 61 62 62 62 74 82 93 80 80 79 95 97 98 96 91 88 89 97 89 96 87 98 99 98 96 100 97 98 82 88 85 86 86 90
60 60 61 61 61 61 61 61 60 60 60 61 62 62 67 82 91 88 80 82 92 94 94 94 92 91 87 92 95 92 95 98 100 99 99 100 96 95 94 90 90 91 85 89 92
60 60 60 60 60 60 60 60 60 60 61 62 62 61 75 83 102 95 97 93 96 95 96 98 95 98 93 94 92 97 97 96 98 98 99 96 91 92 92 98 97 95 93 94 93
59 59 59 60 60 60 60 59 59 60 62 62 62 72 83 90 105 101 99 98 101 99 96 101 102 97 97 91 99 97 90 94 95 97 96 98 83 81 87 91 95 95 95 95 94
59 59 59 59 59 59 59 58 59 62 61 61 62 76 84 104 106 102 102 101 105 104 103 104 103 97 94 98 95 90 91 81 93 96 97 95 77 79 93 91 93 95 95 94 94
58 58 58 58 58 58 58 58 59 62 62 64 70 78 87 89 96 103 104 99 100 101 101 104 98 91 94 87 83 87 78 82 69 76 94 92 82 88 92 88 92 94 94 94 93
58 58 57 57 57 57 56 59 60 63 66 79 83 82 92 92 100 101 105 103 96 96 93 91 90 85 87 84 73 80 80 74 62 73 92 89 88 89 94 96 94 94 93 93 92
57 57 57 56 56 56 65 85 79 77 81 86 90 91 95 101 103 99 102 98 96 91 82 87 81 78 84 88 88 87 85 83 68 81 89 86 87 91 94 91 94 93 92 91 93
57 57 56 56 56 56 64 85 87 89 78 92 95 96 101 101 90 95 102 89 87 80 86 84 77 87 91 91 88 87 83 82 88 93 89 86 85 89 77 67 74 86 92 93 93
56 56 55 55 55 69 88 91 96 95 79 87 96 95 97 99 91 92 96 92 86 82 84 80 87 92 88 87 84 84 82 82 83 89 91 86 81 85 72 72 78 90 95 96 94
56 56 55 52 67 86 88 94 97 95 72 82 89 93 98 97 88 101 99 93 88 82 85 85 91 89 85 83 86 78 89 87 85 82 74 88 71 82 74 74 82 83 94 95 95
56 55 54 53 72 82 91 97 97 90 58 89 90 103 98 89 94 92 101 93 83 85 86 82 86 85 83 85 89 82 92 87 85 81 79 80 75 72 81 74 76 77 84 95 94
55 55 53 74 72 85 95 95 90 68 58 83 89 86 87 89 92 95 94 96 94 87 89 87 96 92 89 92 91 92 87 85 83 80 68 76 76 69 64 73 74 82 93 93 87
55 54 55 74 80 91 92 85 67 61 85 81 83 87 85 84 86 89 85 82 77 73 74 84 85 92 92 85 91 87 79 67 65 66 65 79 76 74 84 83 84 87 91 89 85
54 53 63 76 88 91 85 73 58 74 76 89 87 88 82 87 86 86 83 78 84 83 79 74 72 85 92 86 83 83 79 69 59 62 65 67 66 73 88 91 92 93 92 89 83
52 79 79 81 82 85 75 62 65 73 83 83 86 78 80 85 86 85 81 80 84 85 75 76 77 93 92 92 89 82 75 85 73 76 69 63 75 83 89 87 88 89 92 88 85
64 74 81 91 90 81 69 60 74 83 86 84 75 80 75 81 82 82 81 87 85 90 91 83 73 88 91 93 91 85 89 73 75 60 59 69 71 70 74 72 84 86 89 88 85
68 73 89 93 88 75 63 68 76 84 85 79 77 76 80 80 83 81 82 88 91 90 92 88 80 80 88 83 80 82 79 81 81 76 65 63 61 74 69 74 74 86 89 89 85
72 67 89 91 70 72 67 73 71 82 87 82 81 79 78 82 80 80 80 86 95 93 85 88 82 73 79 89 91 88 82 81 71 67 74 72 61 81 70 69 75 82 88 89 87
66 74 89 86 64 68 74 75 80 80 81 80 78 81 83 78 73 80 83 92 94 91 85 88 78 69 72 83 87 82 85 84 81 77 69 67 70 82 71 69 83 86 87 87 82
66 67 77 79 77 71 71 73 74 83 82 82 81 82 79 76 81 76 80 89 91 91 76 83 78 73 70 74 78 77 82 84 81 72 73 74 68 73 71 71 66 81 87 83 81
68 68 75 68 72 72 72 73 73 74 81 81 76 79 78 72 75 75 81 85 89 79 86 84 72 78 80 83 83 82 82 83 79 80 74 76 74 68 66 69 69 67 83 81 79
64 64 69 67 69 68 65 69 71 76 77 75 73 79 80 74 76 74 80 80 79 86 82 84 72 76 74 82 83 79 83 83 83 83 82 83 62 69 67 70 69 70 78 79 79
68 70 66 60 66 66 69 71 73 76 79 82 80 78 76 80 85 87 89 86 85 81 79 77 75 71 67 78 79 72 80 81 83 86 84 73 67 67 68 69 66 75 78 79 78
MSLP
1015.38 1015.07 1014.70 1014.38 1014.11 1013.79 1013.47 1013.19 1012.93 1012.65 1012.41 1012.09 1011.96 1011.72 1011.50 1011.37 1010.91 1010.23 1007.82 1005.73 1005.77 1006.25 1006.42 1005.58 1005.30 1004.51 1003.95 1003.30 1002.68 1002.75 1003.37 1005.89 1005.56 1003.69 1000.66 999.12 998.47 998.80 1000.61 1003.51 1006.06 1006.54 1005.19 1004.98 1006.29
1015.48 1015.11 1014.77 1014.39 1013.98 1013.71 1013.52 1013.23 1012.91 1012.60 1012.37 1012.09 1011.90 1011.70 1011.60 1011.45 1010.22 1007.88 1005.80 1005.50 1005.84 1006.06 1006.17 1005.12 1004.57 1004.02 1003.33 1002.41 1002.14 1002.22 1004.26 1005.88 1003.09 1001.32 999.25 998.41 998.26 998.76 1002.10 1004.62 1007.23 1006.37 1006.33 1006.13 1005.92
1015.66 1015.24 1014.84 1014.40 1013.99 1013.68 1013.40 1013.08 1012.75 1012.49 1012.35 1012.03 1011.84 1011.68 1011.54 1011.30 1008.92 1004.92 1005.13 1005.44 1005.97 1006.09 1005.57 1004.74 1004.00 1003.54 1002.72 1001.89 1001.20 1001.13 1002.80 1001.65 1001.62 999.60 999.10 998.39 997.99 998.66 1001.62 1004.34 1005.49 1005.08 1004.93 1005.49 1005.78
1015.74 1015.35 1014.89 1014.44 1013.97 1013.62 1013.34 1013.01 1012.64 1012.37 1012.15 1011.92 1011.75 1011.65 1011.45 1010.46 1006.82 1005.21 1005.58 1005.72 1006.00 1005.84 1005.22 1004.23 1003.69 1003.10 1002.39 1001.30 1000.44 1000.16 999.96 1000.88 999.06 998.65 998.54 998.04 997.98 998.38 999.21 1001.75 1002.65 1003.81 1004.03 1004.93 1005.18
1015.77 1015.38 1014.93 1014.39 1013.93 1013.53 1013.15 1012.86 1012.48 1012.20 1011.96 1011.74 1011.61 1011.50 1011.27 1008.58 1005.06 1005.28 1005.69 1005.98 1006.03 1005.90 1004.94 1003.99 1003.42 1002.77 1001.99 1000.80 999.93 999.52 999.21 998.87 998.20 998.28 997.95 998.12 998.39 998.64 999.65 1000.89 1002.11 1003.00 1004.08 1004.37 1004.11
1015.93 1015.42 1014.91 1014.37 1013.90 1013.48 1013.02 1012.60 1012.34 1012.04 1011.71 1011.54 1011.47 1011.49 1010.05 1006.06 1003.99 1004.91 1005.00 1005.57 1005.20 1005.18 1004.27 1003.67 1002.97 1002.42 1001.61 1000.46 999.65 998.90 998.42 998.36 998.22 998.14 997.99 997.83 998.99 999.52 1000.16 1000.54 1000.91 1001.79 1002.73 1003.20 1003.80
1015.87 1015.41 1014.85 1014.30 1013.92 1013.39 1012.90 1012.41 1012.10 1011.82 1011.52 1011.46 1011.51 1010.91 1007.87 1004.38 1003.34 1004.23 1004.63 1004.51 1004.33 1004.21 1003.49 1003.28 1002.79 1002.13 1001.55 1000.75 999.68 999.12 998.71 998.40 998.43 998.12 997.71 998.14 999.47 1000.32 1000.47 1000.86 1000.81 1001.17 1002.02 1002.62 1003.37
1015.93 1015.41 1014.85 1014.24 1013.64 1013.08 1012.71 1012.34 1012.02 1011.61 1011.52 1011.45 1011.40 1010.12 1005.90 1003.30 1003.27 1003.51 1003.97 1003.67 1003.39 1003.53 1003.12 1002.84 1002.87 1002.40 1001.56 1000.70 999.78 999.14 998.86 998.92 998.14 997.78 997.75 998.34 999.76 1000.02 999.81 1000.54 1000.47 1000.87 1001.49 1002.20 1003.11
1015.83 1015.28 1014.71 1014.11 1013.48 1012.86 1012.24 1011.83 1011.64 1011.39 1011.39 1011.27 1010.70 1008.84 1004.31 1003.94 1003.32 1003.00 1003.10 1002.87 1003.30 1003.33 1003.39 1002.95 1002.88 1002.48 1001.49 1000.69 999.86 998.73 998.49 998.70 1000.63 999.75 998.27 998.19 998.86 999.34 999.56 1000.14 999.92 1000.62 1001.16 1001.88 1002.76
1015.71 1015.08 1014.44 1013.75 1013.10 1012.53 1011.71 1010.75 1011.06 1011.22 1010.92 1010.05 1008.73 1007.04 1003.73 1002.35 1002.07 1002.52 1002.68 1002.79 1003.17 1003.23 1003.26 1003.31 1002.83 1002.01 1001.20 1000.18 998.90 997.69 997.83 1000.59 1003.26 1001.73 998.52 998.13 997.73 998.79 999.19 999.15 999.55 999.81 1000.60 1001.30 1002.12
1015.81 1015.11 1014.41 1013.61 1012.78 1012.36 1011.43 1009.66 1010.39 1009.89 1008.38 1005.80 1004.57 1003.06 1001.82 1001.81 1001.95 1002.11 1002.53 1002.66 1003.00 1002.96 1002.69 1002.53 1002.11 1000.84 1000.05 999.32 998.92 998.11 998.14 998.56 1000.06 999.35 998.18 998.26 997.84 998.08 998.85 1000.23 999.30 999.17 1000.04 1000.88 1001.36
1016.05 1015.28 1014.45 1013.58 1012.60 1011.80 1011.86 1009.04 1008.10 1007.88 1006.03 1004.04 1002.74 1001.90 1001.12 1001.30 1001.60 1001.74 1002.31 1002.50 1002.54 1002.20 1002.27 1001.71 1000.93 1000.20 999.66 999.02 998.63 998.22 998.11 998.22 997.96 997.66 997.82 997.89 998.06 999.27 1000.59 1002.70 1001.99 1001.24 1000.07 1000.55 1000.93
1016.04 1015.30 1014.46 1013.40 1012.30 1011.04 1009.41 1007.73 1007.69 1007.10 1005.55 1002.12 1000.73 1000.33 1000.29 1000.89 1000.54 1000.57 1001.73 1001.79 1001.61 1001.58 1001.12 1000.63 999.31 999.04 999.41 998.89 998.68 998.44 998.09 997.72 997.45 997.14 996.87 997.50 998.33 999.54 1002.22 1001.74 1001.16 1000.25 999.85 1000.13 1000.37
1016.06 1015.42 1014.69 1013.47 1012.14 1009.90 1008.05 1007.59 1007.26 1007.08 1004.91 1000.43 999.13 999.14 999.25 1000.21 1000.03 999.80 1000.64 1001.18 1000.78 1000.63 1000.38 999.81 999.30 998.72 998.88 998.62 998.55 998.16 997.80 997.82 997.72 997.59 997.03 997.35 997.64 998.88 1001.44 1001.84 1001.55 1000.52 999.49 999.84 1000.42
1015.97 1015.46 1014.73 1014.93 1012.74 1009.73 1007.81 1007.51 1007.52 1006.92 1003.27 998.12 998.52 998.68 999.10 999.71 998.29 999.00 999.79 1000.70 1000.28 999.98 1000.02 998.94 998.54 998.43 998.24 998.22 998.20 998.15 997.63 997.82 998.06 998.01 998.05 998.02 998.37 1000.25 1000.47 1002.14 1001.82 1000.92 999.54 999.71 1000.76
1015.71 1015.40 1014.86 1012.02 1012.44 1009.56 1008.29 1008.00 1007.52 1005.95 1001.22 998.08 998.27 998.76 998.74 999.00 998.38 998.26 999.11 1000.14 1000.03 999.68 999.01 998.57 997.79 997.79 997.78 997.67 997.92 998.12 998.09 998.47 998.83 998.60 998.17 998.12 998.48 999.35 999.92 1001.09 1000.53 1000.06 999.64 1000.46 1002.08
1015.20 1014.89 1015.01 1013.00 1009.94 1009.00 1008.73 1008.01 1006.45 1003.42 999.52 997.77 997.45 997.83 998.05 997.92 998.16 998.08 998.75 999.25 999.53 999.22 998.71 998.01 997.77 997.67 997.99 997.53 997.49 998.08 998.48 998.47 998.69 998.42 998.01 998.06 997.89 998.06 998.25 999.10 999.12 999.48 1000.01 1001.31 1002.81
1014.48 1013.64 1012.17 1011.46 1009.85 1009.14 1008.92 1007.68 1004.78 1001.30 999.68 997.60 996.77 996.66 996.88 996.92 996.98 997.52 998.15 998.57 999.05 998.57 997.70 997.39 996.90 996.87 996.90 997.33 997.05 997.38 998.26 998.17 997.86 997.92 999.00 999.37 998.80 997.94 997.72 998.49 998.82 998.97 999.89 1001.39 1003.22
1013.94 1011.02 1010.26 1009.71 1009.91 1009.73 1008.68 1006.20 1003.31 1001.52 999.49 997.82 997.26 997.42 996.84 996.72 996.27 996.51 997.35 997.56 997.71 998.06 997.59 996.56 995.75 994.97 995.62 996.44 997.23 996.87 997.52 998.04 998.05 997.94 998.53 999.79 998.90 998.52 998.48 998.87 999.40 999.53 1000.06 1001.30 1003.25
1013.94 1010.73 1008.05 1007.53 1008.44 1008.98 1007.93 1005.13 1002.67 1001.09 999.72 999.04 997.98 997.73 997.08 996.09 995.88 996.12 996.02 996.55 996.61 996.78 997.20 996.71 996.19 995.57 994.96 995.77 996.51 996.93 997.04 997.56 997.91 997.98 998.02 998.00 998.61 999.02 1000.02 1000.26 1000.43 1000.29 1000.57 1001.52 1003.28
1013.11 1009.03 1005.65 1006.79 1007.97 1007.73 1005.98 1004.41 1002.74 1001.43 1000.54 999.95 999.29 998.56 997.41 996.34 995.63 995.66 995.59 995.57 995.52 995.72 996.11 996.50 996.82 996.11 995.29 995.53 996.02 996.42 996.77 996.73 996.94 997.28 997.31 998.01 1000.58 1001.29 1001.33 1001.10 1001.43 1000.99 1001.00 1001.70 1003.18
1011.93 1008.29 1006.30 1006.68 1007.10 1006.34 1005.05 1004.11 1002.81 1001.08 1000.34 1000.47 1000.42 999.57 998.42 997.22 996.42 995.79 995.39 994.90 994.54 995.00 995.42 996.32 996.65 996.49 995.43 995.44 996.14 995.69 995.87 996.43 996.73 997.17 997.27 998.00 999.93 1000.77 1002.99 1002.59 1000.60 1001.85 1001.26 1001.92 1003.13
1012.14 1007.90 1006.03 1006.32 1005.82 1005.03 1004.38 1003.49 1002.30 1001.35 1000.54 1000.45 1000.23 1000.05 999.22 998.34 997.68 996.78 996.00 994.99 994.53 995.19 995.99 996.01 996.70 996.64 996.12 995.34 995.28 995.40 995.52 995.82 996.59 997.16 997.42 998.37 999.67 1001.27 1003.57 1002.97 1000.56 1000.45 1001.53 1002.26 1003.66
1012.72 1007.88 1006.13 1005.90 1005.73 1004.73 1003.37 1002.28 1001.48 1001.04 1000.43 1000.59 1000.05 999.96 999.49 999.05 998.42 997.83 996.75 995.65 995.98 996.00 996.80 996.96 996.89 996.85 995.89 995.49 995.71 995.22 995.25 995.36 995.68 996.33 997.02 997.83 1000.00 1001.41 1002.04 1003.33 1001.31 1002.33 1002.18 1003.24 1004.35
1012.44 1008.44 1006.53 1005.10 1004.95 1004.74 1004.08 1002.96 1001.17 1000.50 1000.62 1000.99 1000.41 999.83 999.29 999.06 998.62 998.01 997.46 996.44 996.20 997.04 997.40 997.53 997.42 996.93 996.27 995.75 995.35 995.03 994.68 994.88 995.19 995.50 996.61 997.82 999.90 1002.30 1002.65 1002.81 1003.12 1004.47 1003.84 1004.28 1005.07
1012.48 1010.65 1009.06 1007.64 1006.67 1005.49 1003.56 1002.99 1001.95 1000.67 1000.47 1000.27 1000.34 999.73 999.51 999.03 998.74 998.16 997.83 997.43 996.80 996.90 997.68 997.82 997.88 997.79 996.96 996.19 995.43 995.08 994.85 994.64 994.77 995.32 996.08 997.50 1001.47 1003.62 1004.02 1004.37 1004.22 1005.70 1005.52 1005.34 1005.49
1014.32 1013.04 1011.64 1009.18 1007.50 1006.03 1004.19 1003.01 1002.36 1001.84 1000.71 1000.05 999.77 999.86 999.64 999.37 999.12 998.54 997.90 997.90 997.56 997.45 997.47 998.11 998.12 998.19 997.42 996.91 996.00 995.15 995.12 995.09 994.86 995.25 995.92 998.01 1001.21 1003.70 1005.28 1005.62 1005.71 1006.05 1006.00 1005.84 1006.19
Wind_Speed
15 15 15 15 14 14 15 15 15 14 14 14 13 11 11 11 14 7 10 2 7 11 6 9 13 14 13 15 17 14 5 3 3 18 7 13 3 6 23 31 26 29 6 22 19
16 16 16 15 15 15 15 15 15 14 14 12 12 10 10 10 10 15 5 10 11 12 12 11 11 12 11 13 11 11 7 10 14 20 11 12 1 9 20 27 12 11 10 15 18
16 16 16 16 16 16 15 15 15 13 13 11 10 9 9 10 9 3 9 13 12 13 15 13 10 11 13 14 14 15 12 33 23 4 10 9 13 5 28 17 11 19 13 13 15
17 17 17 17 17 16 16 16 15 14 12 10 9 7 7 8 3 7 8 10 11 15 15 11 12 11 13 14 15 14 15 27 8 6 10 12 16 10 6 13 17 25 17 15 15
18 18 18 18 17 17 17 17 15 14 12 9 8 6 7 8 5 8 10 8 12 15 15 11 12 11 13 15 14 13 14 18 8 12 11 6 10 12 24 22 21 15 16 16 13
17 18 18 18 18 18 17 17 15 14 11 7 5 3 7 9 10 12 14 14 14 15 15 12 10 12 15 16 19 16 14 14 19 11 13 8 14 18 13 19 19 18 17 15 16
18 18 19 19 18 18 17 17 16 12 8 4 3 6 9 11 5 12 14 14 15 16 11 12 14 13 14 14 18 15 19 14 15 18 18 6 12 3 8 19 5 15 13 14 15
18 19 19 20 20 19 18 16 14 10 5 3 3 6 9 5 3 11 14 14 12 12 11 7 11 13 18 14 20 13 16 15 18 23 4 4 5 11 18 18 8 10 11 13 13
19 20 20 21 21 20 19 17 12 9 7 6 6 7 9 4 10 13 15 12 8 7 8 8 6 13 15 15 15 16 16 21 9 36 8 5 9 16 19 21 13 9 9 11 12
20 20 21 21 21 20 24 18 7 7 8 10 10 9 10 9 12 14 14 9 10 8 7 9 7 12 13 14 13 18 13 7 11 28 13 11 7 17 16 11 11 17 12 10 13
20 21 22 23 23 19 14 4 6 6 10 12 3 13 7 3 7 11 13 13 11 10 13 13 11 14 17 17 17 21 19 13 23 18 3 8 9 4 7 12 8 15 13 11 9
20 21 22 23 24 23 8 9 9 8 12 17 20 20 15 9 10 13 15 14 15 13 14 13 14 17 17 16 16 15 16 15 12 9 4 8 11 9 17 21 34 23 12 12 13
21 21 23 25 26 11 11 7 7 11 8 15 21 19 16 15 16 17 19 19 16 16 16 15 8 15 14 15 14 15 14 15 14 14 6 10 12 13 8 17 23 20 11 10 10
20 21 21 29 5 10 9 5 6 6 7 12 15 10 14 14 16 20 20 19 13 16 17 15 17 16 7 14 14 14 14 12 14 13 11 8 10 5 15 16 6 28 11 6 7
20 20 21 8 12 8 7 8 8 7 7 8 17 11 14 15 4 20 22 19 19 17 13 16 13 15 17 12 13 14 13 8 8 13 14 17 11 8 5 8 7 10 28 5 10
22 18 21 2 8 13 12 9 8 7 10 10 12 12 15 19 13 10 20 17 16 20 18 17 15 11 13 14 13 11 14 6 12 13 13 15 15 7 5 11 6 14 5 12 22
24 19 9 9 8 14 9 8 7 10 7 9 14 14 18 18 18 13 19 19 19 16 18 18 18 12 10 13 13 11 11 8 11 11 13 14 17 6 19 17 13 12 10 19 18
29 24 9 9 10 10 7 9 12 10 23 12 2 14 20 21 19 19 16 18 22 23 13 14 15 20 16 15 13 17 14 11 14 8 4 13 13 5 16 12 9 11 14 23 19
30 9 7 9 14 8 8 13 9 16 16 11 11 14 13 16 18 19 19 19 21 23 19 14 18 10 19 13 14 11 12 16 18 18 6 10 14 9 6 13 10 11 9 19 17
9 9 12 14 13 8 9 17 16 23 19 14 11 14 16 18 13 13 17 18 20 22 20 19 14 13 9 15 16 16 9 9 10 15 15 8 13 8 6 8 5 8 9 16 19
7 7 7 14 10 9 14 19 19 24 13 8 11 16 18 19 14 19 17 16 18 20 20 16 13 14 11 11 13 11 14 13 12 12 12 9 5 2 2 4 1 8 9 13 19
7 8 10 10 9 10 15 21 21 21 13 13 15 18 19 16 13 8 15 16 15 15 17 11 7 13 16 12 11 17 14 16 9 12 12 6 4 14 6 3 13 19 12 14 17
7 10 10 10 11 13 18 23 23 21 16 12 14 16 16 16 11 11 17 8 6 12 5 13 8 11 13 11 15 17 15 14 12 12 12 8 3 13 21 11 16 15 14 13 17
7 5 8 8 12 20 17 18 21 21 17 16 16 16 17 14 15 12 16 9 5 8 7 6 9 11 14 8 8 9 12 13 15 11 14 14 10 9 9 6 10 7 12 17 17
6 7 13 7 10 16 18 19 21 17 12 16 19 19 16 16 15 17 17 17 11 4 7 8 13 14 18 15 10 13 17 16 18 15 12 8 7 13 10 4 7 8 11 14 11
9 7 12 14 14 16 12 20 19 18 18 19 18 18 15 15 15 13 15 15 14 13 11 12 12 13 18 20 17 13 14 9 13 16 18 17 18 10 10 4 2 7 9 10 11
10 10 8 10 14 12 12 15 17 19 20 20 15 18 17 16 17 16 17 7 11 14 9 14 12 12 15 18 18 16 8 13 13 13 14 2 16 17 12 3 7 14 13 12 13
Wind_Direction
3 2 1 360 356 351 344 338 334 331 328 324 320 320 317 316 297 233 240 220 178 171 252 208 224 240 254 262 259 278 2 16 175 280 147 255 76 195 72 75 342 341 105 133 147
360 359 357 355 353 348 342 335 332 331 325 321 316 314 311 313 270 257 219 113 143 162 204 211 221 233 245 258 246 235 85 283 234 216 345 324 182 16 93 106 166 310 332 132 147
357 355 352 351 349 345 339 335 332 329 321 317 315 310 303 298 272 122 110 138 157 175 208 218 238 239 251 256 242 246 163 225 252 24 308 332 299 173 130 129 169 221 182 178 163
354 351 349 347 345 340 337 333 332 326 319 312 311 306 306 253 348 94 162 146 166 195 237 215 240 238 259 255 253 246 275 194 290 333 301 307 344 337 354 169 183 199 172 202 171
351 348 345 344 341 335 334 332 331 325 314 306 305 302 269 229 255 124 143 149 176 199 226 214 231 246 251 260 256 252 268 286 285 287 291 344 301 328 8 149 162 170 174 197 154
348 345 342 339 336 331 329 331 328 321 310 297 294 292 252 253 103 142 151 164 171 197 221 221 233 239 264 282 290 277 252 262 274 286 283 272 58 58 336 325 139 144 162 166 158
346 343 339 336 331 328 325 328 323 312 319 291 264 259 257 259 136 166 162 178 181 214 218 224 249 267 250 265 266 272 272 273 269 251 247 283 51 70 250 275 185 146 161 162 160
345 342 337 333 329 326 320 319 312 295 297 272 255 263 272 117 236 175 187 198 207 220 254 240 244 277 273 279 282 263 271 265 257 275 202 207 135 220 229 234 169 166 164 153 159
344 340 336 330 326 321 316 309 294 258 256 248 242 237 263 135 208 190 201 196 188 226 231 255 259 246 253 249 262 249 250 242 22 308 277 202 143 206 219 218 154 176 166 159 162
342 338 334 330 325 324 321 297 183 235 222 223 258 259 225 232 179 184 208 199 196 204 197 231 230 245 233 247 248 261 260 74 93 267 195 238 255 170 213 164 193 168 165 163 170
342 336 332 327 322 325 332 236 225 183 224 256 145 250 129 108 127 182 191 201 202 210 226 193 218 228 239 229 262 289 304 315 182 231 355 287 289 334 176 3 241 161 159 167 197
341 336 330 325 318 317 276 278 53 324 295 271 260 253 259 159 190 196 189 197 204 218 219 229 233 247 250 264 274 282 287 287 292 276 228 290 297 57 89 88 288 297 163 177 181
341 337 332 325 316 288 256 329 343 312 269 278 239 225 209 212 229 185 192 205 202 225 223 229 244 209 242 261 257 267 270 285 277 300 221 259 258 253 118 152 232 279 162 194 180
339 337 334 327 295 339 277 59 313 333 275 254 192 220 199 200 233 239 182 210 237 228 228 247 241 260 252 244 252 258 253 248 284 293 279 292 282 248 156 195 256 315 168 188 146
335 336 328 327 310 277 15 326 330 267 280 121 160 120 184 196 143 204 170 211 224 231 238 241 235 240 245 242 236 256 276 311 301 276 274 269 271 53 91 80 92 339 280 154 130
329 333 333 231 212 262 307 304 274 232 240 188 141 193 191 208 237 173 189 206 232 247 242 249 245 232 244 238 249 250 268 245 272 266 261 250 257 178 126 205 205 207 136 113 96
323 319 303 307 249 351 328 264 221 238 213 237 175 199 209 207 217 201 197 197 220 221 240 236 241 226 244 258 223 228 256 239 243 231 243 278 234 237 156 165 179 164 123 107 121
319 309 228 238 270 263 263 229 237 248 241 304 289 202 207 216 195 203 204 217 218 234 244 219 231 217 209 229 246 206 241 243 245 231 330 358 325 10 115 107 112 131 157 129 135
310 277 224 236 220 246 243 221 223 240 287 267 222 247 259 240 252 197 204 218 218 221 243 259 248 213 209 190 240 244 213 254 272 284 217 190 227 180 159 118 126 138 177 133 149
309 288 249 199 165 199 232 242 239 257 294 296 268 258 240 248 218 241 204 216 227 218 224 257 275 281 200 192 203 250 225 230 239 266 278 203 214 145 93 53 131 162 182 133 141
259 245 126 134 175 216 225 233 242 264 300 274 278 263 268 265 230 216 241 227 216 223 226 222 256 275 244 202 237 204 243 254 256 239 252 278 72 103 178 226 275 217 172 147 140
291 248 148 162 201 224 232 237 263 267 238 229 265 282 287 280 283 267 259 246 222 208 217 215 232 243 263 189 228 261 226 230 244 245 268 290 162 163 140 1 231 232 151 155 150
281 268 164 205 233 230 233 247 249 253 256 251 233 257 264 278 284 260 263 300 356 185 281 203 213 250 254 243 193 217 235 218 226 273 282 294 239 172 147 225 207 139 147 129 129
276 247 224 196 247 262 264 251 233 242 253 235 253 236 259 247 256 263 265 263 165 263 22 350 275 224 244 252 10 227 242 254 250 229 244 248 101 74 342 20 27 347 131 116 133
245 265 354 245 220 232 256 268 274 228 201 248 261 248 231 245 243 236 252 276 173 180 254 254 261 260 248 279 265 274 240 216 248 240 257 286 152 178 153 76 14 358 111 129 124
306 344 347 305 312 296 271 242 257 274 223 224 236 256 237 252 241 245 239 259 278 183 211 249 246 262 272 279 265 224 258 275 224 244 248 257 100 163 144 216 133 250 159 158 150
2 332 305 295 287 271 278 271 239 262 276 242 213 236 245 240 253 255 260 302 278 272 210 218 245 241 255 253 265 270 259 284 254 264 280 340 149 163 177 142 213 193 181 160 129